When you browse on this site, cookies collect data to enhance your experience and personalize the content and advertising you see.
Visit our Privacy Policy to learn more. By continuing to use the site, you agree to this use of cookies and data.
  • In Hungary
  • List of Countries
  • For 7 days
  • Water Temperature
  • Satellite Maps
  • Weather Map
  • News
  • Weather Widgets
  • user-avatar
    Login

    Hourly Weather Kalemie

    Today, 18 November, Sunday

    Time Temperature Precipitation Wind Pressure Humidity
    00:00 +26°C° 0 mm 1 mps 706 mmHg 36%
    01:00 +25°C° 0 mm 1 mps 706 mmHg 37%
    02:00 +23°C° 0 mm 0 mps 706 mmHg 37%
    03:00 +22°C° 0 mm 0 mps 706 mmHg 38%
    04:00 +22°C° 0 mm 0 mps 706 mmHg 39%
    05:00 +21°C° 0 mm 0 mps 706 mmHg 39%
    06:00 +23°C° 0 mm 0 mps 706 mmHg 36%
    07:00 +28°C° 0 mm 1 mps 707 mmHg 33%
    08:00 +30°C° 0 mm 1 mps 708 mmHg 29%
    09:00 +32°C° 0 mm 1 mps 708 mmHg 25%
    10:00 +35°C° 0 mm 2 mps 708 mmHg 21%
    11:00 +37°C° 0 mm 3 mps 708 mmHg 17%
    12:00 +38°C° 0 mm 3 mps 707 mmHg 17%
    13:00 +39°C° 0 mm 2 mps 706 mmHg 17%
    14:00 +39°C° 0 mm 2 mps 705 mmHg 17%
    15:00 +39°C° 0 mm 2 mps 705 mmHg 19%
    16:00 +38°C° 0 mm 2 mps 704 mmHg 21%
    17:00 +36°C° 0 mm 1 mps 704 mmHg 23%
    18:00 +34°C° 0 mm 1 mps 704 mmHg 25%
    19:00 +31°C° 0 mm 1 mps 704 mmHg 27%
    20:00 +29°C° 0 mm 1 mps 705 mmHg 29%
    21:00 +29°C° 0 mm 1 mps 705 mmHg 30%
    22:00 +28°C° 0 mm 1 mps 705 mmHg 31%
    23:00 +27°C° 0 mm 1 mps 705 mmHg 32%

    Tomorrow, 19 November, Monday

    Time Temperature Precipitation Wind Pressure Humidity
    00:00 +27°C° 0 mm 1 mps 705 mmHg 34%
    01:00 +26°C° 0 mm 1 mps 705 mmHg 37%
    02:00 +24°C° 0 mm 0 mps 704 mmHg 39%
    03:00 +23°C° 0 mm 0 mps 704 mmHg 41%
    04:00 +23°C° 0 mm 0 mps 704 mmHg 44%
    05:00 +23°C° 0 mm 0 mps 704 mmHg 47%
    06:00 +25°C° 0 mm 0 mps 705 mmHg 44%
    07:00 +27°C° 0 mm 0 mps 706 mmHg 42%
    08:00 +29°C° 0 mm 0 mps 707 mmHg 39%
    09:00 +33°C° 0 mm 1 mps 707 mmHg 36%
    10:00 +36°C° 0 mm 2 mps 707 mmHg 32%
    11:00 +38°C° 0 mm 2 mps 707 mmHg 28%
    12:00 +38°C° 0 mm 2 mps 706 mmHg 28%
    13:00 +38°C° 0 mm 2 mps 705 mmHg 28%
    14:00 +39°C° 0 mm 2 mps 704 mmHg 27%
    15:00 +38°C° 0 mm 2 mps 704 mmHg 30%
    16:00 +37°C° 0 mm 2 mps 704 mmHg 32%
    17:00 +35°C° 0 mm 1 mps 703 mmHg 34%
    18:00 +33°C° 0 mm 1 mps 704 mmHg 38%
    19:00 +32°C° 0 mm 1 mps 704 mmHg 42%
    20:00 +30°C° 0 mm 1 mps 705 mmHg 46%
    21:00 +30°C° 0 mm 1 mps 705 mmHg 48%
    22:00 +29°C° 0 mm 1 mps 705 mmHg 49%
    23:00 +28°C° 0 mm 1 mps 705 mmHg 51%

    Day after tomorrow, 20 November, Tuesday

    Time Temperature Precipitation Wind Pressure Humidity
    00:00 +28°C° 0 mm 1 mps 705 mmHg 53%
    01:00 +25°C° 0 mm 0 mps 704 mmHg 55%
    02:00 +25°C° 0 mm 0 mps 704 mmHg 57%
    03:00 +24°C° 0 mm 0 mps 704 mmHg 58%
    04:00 +24°C° 0 mm 0 mps 704 mmHg 60%
    05:00 +23°C° 0 mm 0 mps 704 mmHg 61%
    06:00 +27°C° 0 mm 1 mps 705 mmHg 56%
    07:00 +29°C° 0 mm 1 mps 705 mmHg 51%
    08:00 +31°C° 0 mm 1 mps 706 mmHg 45%
    09:00 +34°C° 0 mm 2 mps 706 mmHg 41%
    10:00 +36°C° 0 mm 2 mps 707 mmHg 36%
    11:00 +38°C° 0 mm 3 mps 707 mmHg 31%
    12:00 +38°C° 0 mm 3 mps 706 mmHg 31%
    13:00 +38°C° 0 mm 2 mps 705 mmHg 30%
    14:00 +38°C° 0 mm 2 mps 704 mmHg 29%
    15:00 +38°C° 0 mm 2 mps 704 mmHg 30%
    16:00 +36°C° 0 mm 1 mps 704 mmHg 31%
    17:00 +36°C° 0 mm 1 mps 704 mmHg 32%
    18:00 +34°C° 0.1 mm 1 mps 704 mmHg 36%
    19:00 +32°C° 0.1 mm 1 mps 704 mmHg 41%
    20:00 +30°C° 0.1 mm 1 mps 705 mmHg 45%
    21:00 +29°C° 0.2 mm 1 mps 705 mmHg 49%
    22:00 +28°C° 0.2 mm 1 mps 705 mmHg 54%
    23:00 +27°C° 0.2 mm 1 mps 705 mmHg 58%

    21 November, Wednesday

    Time Temperature Precipitation Wind Pressure Humidity
    00:00 +27°C° 0 mm 1 mps 704 mmHg 59%
    01:00 +27°C° 0 mm 1 mps 704 mmHg 61%
    02:00 +24°C° 0 mm 0 mps 704 mmHg 62%
    03:00 +24°C° 0 mm 0 mps 704 mmHg 64%
    04:00 +24°C° 0 mm 0 mps 704 mmHg 65%
    05:00 +25°C° 0 mm 1 mps 704 mmHg 67%
    06:00 +27°C° 0 mm 1 mps 705 mmHg 62%
    07:00 +29°C° 0 mm 1 mps 706 mmHg 56%
    08:00 +31°C° 0 mm 1 mps 706 mmHg 51%
    09:00 +33°C° 0 mm 1 mps 707 mmHg 44%
    10:00 +36°C° 0 mm 1 mps 707 mmHg 37%
    11:00 +39°C° 0 mm 1 mps 707 mmHg 30%
    12:00 +37°C° 0 mm 1 mps 706 mmHg 31%
    13:00 +37°C° 0 mm 1 mps 705 mmHg 31%
    14:00 +36°C° 0 mm 1 mps 704 mmHg 32%
    15:00 +35°C° 0 mm 1 mps 704 mmHg 35%
    16:00 +34°C° 0 mm 1 mps 704 mmHg 37%
    17:00 +33°C° 0 mm 1 mps 704 mmHg 39%
    18:00 +32°C° 0 mm 1 mps 704 mmHg 42%
    19:00 +31°C° 0 mm 1 mps 704 mmHg 44%
    20:00 +28°C° 0 mm 0 mps 705 mmHg 47%
    21:00 +27°C° 0 mm 0 mps 705 mmHg 48%
    22:00 +29°C° 0 mm 1 mps 705 mmHg 49%
    23:00 +28°C° 0 mm 1 mps 705 mmHg 50%

    22 November, Thursday

    Time Temperature Precipitation Wind Pressure Humidity
    00:00 +28°C° 0 mm 1 mps 704 mmHg 50%
    01:00 +28°C° 0 mm 1 mps 704 mmHg 51%
    02:00 +28°C° 0 mm 1 mps 704 mmHg 51%
    03:00 +27°C° 0 mm 1 mps 704 mmHg 53%
    04:00 +26°C° 0 mm 1 mps 704 mmHg 55%
    05:00 +26°C° 0 mm 1 mps 704 mmHg 57%
    06:00 +28°C° 0 mm 1 mps 705 mmHg 53%
    07:00 +29°C° 0 mm 1 mps 705 mmHg 48%
    08:00 +31°C° 0 mm 1 mps 706 mmHg 44%
    09:00 +34°C° 0 mm 1 mps 706 mmHg 37%
    10:00 +37°C° 0 mm 1 mps 706 mmHg 30%
    11:00 +41°C° 0 mm 1 mps 706 mmHg 24%
    12:00 +40°C° 0 mm 1 mps 705 mmHg 25%
    13:00 +37°C° 0 mm 1 mps 704 mmHg 27%
    14:00 +36°C° 0 mm 1 mps 704 mmHg 28%
    15:00 +35°C° 0 mm 1 mps 704 mmHg 29%
    16:00 +35°C° 0 mm 1 mps 704 mmHg 30%
    17:00 +35°C° 0 mm 1 mps 704 mmHg 31%
    18:00 +33°C° 0 mm 1 mps 704 mmHg 34%
    19:00 +32°C° 0 mm 1 mps 705 mmHg 36%
    20:00 +30°C° 0 mm 1 mps 705 mmHg 39%
    21:00 +30°C° 0 mm 1 mps 705 mmHg 41%
    22:00 +29°C° 0 mm 1 mps 705 mmHg 43%
    23:00 +28°C° 0 mm 1 mps 705 mmHg 44%

    23 November, Friday

    Time Temperature Precipitation Wind Pressure Humidity
    00:00 +28°C° 0 mm 1 mps 705 mmHg 47%
    01:00 +27°C° 0 mm 1 mps 704 mmHg 49%
    02:00 +27°C° 0 mm 1 mps 704 mmHg 52%
    03:00 +26°C° 0 mm 1 mps 704 mmHg 55%
    04:00 +26°C° 0 mm 1 mps 705 mmHg 59%
    05:00 +25°C° 0 mm 1 mps 705 mmHg 62%
    06:00 +27°C° 0 mm 2 mps 705 mmHg 61%
    07:00 +28°C° 0 mm 2 mps 706 mmHg 59%
    08:00 +30°C° 0 mm 2 mps 707 mmHg 57%
    09:00 +34°C° 0 mm 2 mps 707 mmHg 47%
    10:00 +36°C° 0 mm 1 mps 707 mmHg 37%
    11:00 +40°C° 0 mm 1 mps 707 mmHg 27%
    12:00 +40°C° 0 mm 1 mps 706 mmHg 26%
    13:00 +40°C° 0 mm 2 mps 705 mmHg 25%
    14:00 +40°C° 0 mm 2 mps 704 mmHg 24%
    15:00 +39°C° 0 mm 2 mps 704 mmHg 25%
    16:00 +37°C° 0 mm 1 mps 704 mmHg 26%
    17:00 +36°C° 0 mm 1 mps 703 mmHg 28%
    18:00 +34°C° 0 mm 1 mps 704 mmHg 30%
    19:00 +33°C° 0 mm 1 mps 704 mmHg 32%
    20:00 +31°C° 0 mm 1 mps 704 mmHg 35%
    21:00 +31°C° 0 mm 1 mps 704 mmHg 36%
    22:00 +30°C° 0 mm 1 mps 704 mmHg 38%
    23:00 +29°C° 0 mm 1 mps 704 mmHg 40%
    Show more